Regional Weather Roundup
Issued by NWS

Home | Current Version | Previous Version | Text Only | Print | Product List | Glossary Off
Versions: 1 2 3 4 5 6 7 8 9 10 11 12 13 14 15 16 17 18 19 20 21 22 23 24 25 26 27 28 29 30 31 32 33 34 35 36 37 38 39 40 41 42 43 44 45 46 47 48 49 50

000
ASUS43 KLOT 272203
RWRIL

ILLINOIS REGIONAL WEATHER ROUNDUP
NATIONAL WEATHER SERVICE CHICAGO/ROMEOVILLE IL
500 PM CDT MON MAR 27 2017

NOTE: "FAIR" INDICATES FEW OR NO CLOUDS BELOW 12,000 FEET WITH NO
SIGNIFICANT WEATHER AND/OR OBSTRUCTIONS TO VISIBILITY.

* THESE STATIONS ARE NOT UNDER NWS QUALITY CONTROL. THEY ALSO MAY NOT
  REPORT WEATHER SUCH AS PRECIPITATION OR FOG.

ILZ001-002-007-009-015-016-024-272300-
NORTHWEST ILLINOIS

CITY           SKY/WX    TMP DP  RH WIND       PRES   REMARKS
MOLINE         CLOUDY    53  46  77 N6        29.89F
STERLING*      CLOUDY    52  48  86 NE6       29.90F
SAVANNA*       CLOUDY    50  46  84 N6        29.91S
$$

ILZ003-004-008-010-011-017-018-272300-
NORTH CENTRAL ILLINOIS

CITY           SKY/WX    TMP DP  RH WIND       PRES   REMARKS
ROCKFORD       CLOUDY    53  44  71 N7        29.93S
FREEPORT*      CLOUDY    49  45  85 N3        29.93S
ROCHELLE*      CLOUDY    51  47  86 N7        29.90F
DE KALB*       CLOUDY    50  49  95 NE3       29.90F FOG
PERU*          CLOUDY    51  48  90 N7        29.89F FOG
$$

ILZ005-006-012>014-019>023-272300-
NORTHEAST ILLINOIS

CITY           SKY/WX    TMP DP  RH WIND       PRES   REMARKS
CHICAGO-OHARE  CLOUDY    48  42  80 NE9       29.90F
CHICAGO-MIDWAY CLOUDY    47  43  86 NE8       29.91S
AURORA         CLOUDY    50  48  93 NE7       29.89F FOG
LANSING*       CLOUDY    44  44 100 NE8       29.90F FOG
JOLIET*        CLOUDY    52  49  89 NE7       29.89S
WAUKEGAN       CLOUDY    42  40  92 NE6       29.92F
DUPAGE AIRPORT CLOUDY    50  48  93 NE7       29.89F FOG
WHEELING       CLOUDY    44  42  93 NE7       29.92F
MORRIS*        DRIZZLE   54  50  87 CALM      29.88S
NORTHERLY ISL    N/A     41  40  96 N8          N/A
$$

LMZ740>746-272300-
SOUTHERN LAKE MICHIGAN

STATION/POSITION SKY/WX   TEMP    WIND        PRES    VSBY  WAVE
                          AIR SEA DIR/SP/G                  HT/PER
                          (F)     (DEG/KT/KT) (MB)    (MI)  (FT/S)
HARRISON CRIB              39     360/  7/  7   N/A
BURNHAM HARBOR             41     360/  8/  8   N/A
CALUMET HARBOR             40     350/  6/  8 1012.5F
BURNS HARBOR               40      50/  8/ 10 1013.2F
MICHIGAN CITY              39      30/  9/ 10   N/A
$$

ILZ025>027-034>036-040-047-049-050-058-095>099-272300-
WEST-CENTRAL ILLINOIS

CITY           SKY/WX    TMP DP  RH WIND       PRES   REMARKS
QUINCY         CLOUDY    56  52  86 N8        29.86R
GALESBURG*     CLOUDY    52  49  87 N9        29.88S
MACOMB*        CLOUDY    54  51  90 N13       29.90R
JACKSONVILLE*  CLOUDY    57  53  88 NE7       29.83F
PITTSFIELD*    CLOUDY    56  54  93 N7        29.85S
$$

ILZ028>032-037-038-041>044-048-051>054-059>061-272300-
CENTRAL ILLINOIS

CITY           SKY/WX    TMP DP  RH WIND       PRES   REMARKS
PONTIAC        LGT RAIN  55  54  97 N7        29.87F
BLOOMINGTON    CLOUDY    55  52  89 N12       29.85S
DECATUR        CLOUDY    56  52  86 E13       29.81F
PEORIA         CLOUDY    55  52  89 N6        29.86S
SPRINGFIELD    CLOUDY    58  54  86 N8        29.84R
TAYLORVILLE    NOT AVBL
$$

ILZ033-039-045-046-055>057-062-063-272300-
EAST-CENTRAL ILLINOIS

CITY           SKY/WX    TMP DP  RH WIND       PRES   REMARKS
CHAMPAIGN      CLOUDY    57  52  83 E12       29.83S
RANTOUL*       CLOUDY    61  54  76 NE12      29.83S
MATTOON        CLOUDY    57  55  93 NE8       29.78F
PARIS*         CLOUDY    56  54  94 NE7       29.82F
$$

ILZ079-100>102-272300-
SOUTHWEST ILLINOIS

CITY           SKY/WX    TMP DP  RH WIND       PRES   REMARKS
ALTON          CLOUDY    55  52  88 NW6       29.81F
BELLEVILLE     CLOUDY    57  57  99 W7        29.80R
CAHOKIA*       CLOUDY    58  52  80 NW10      29.81F
SPARTA*        CLOUDY    59  55  86 NW12G17   29.80S
$$

ILZ064>066-069>071-074>076-080>082-084>086-088>090-092>094-272300-
SOUTH-CENTRAL ILLINOIS

CITY           SKY/WX    TMP DP  RH WIND       PRES   REMARKS
CARBONDALE     MOSUNNY   63  57  81 W7        29.79S
CAIRO*         MOSUNNY   63  57  81 SW6       29.80S
EFFINGHAM*     CLOUDY    61  58  91 N3        29.78F
MARION         PTSUNNY   68  59  73 SW6       29.79F
MT. VERNON     PTSUNNY   64  54  69 SW12      29.78S
CENTRALIA*     CLOUDY    60  56  86 W10       29.78S
SALEM*         CLOUDY    61  55  81 W13       29.78S
$$

ILZ067-068-072-073-078-083-087-091-272300-
SOUTHEAST ILLINOIS

CITY           SKY/WX    TMP DP  RH WIND       PRES   REMARKS
LAWRENCEVILLE  RAIN      60  58  92 SW3       29.79S FOG
FLORA*         CLOUDY    64  55  72 SW8       29.79S
FAIRFIELD*     CLOUDY    65  55  70 SW5       29.77F
HARRISBURG*    CLOUDY    64  57  79 SW5       29.80F
ROBINSON*      LGT RAIN  63  56  80 CALM      29.79F
CARMI*         CLOUDY    61  59  92 S8        29.79F
$$

ABBREVIATIONS USED IN REMARKS
   TC - TEMPERATURE IN CELSIUS
  WCI - WIND CHILL INDEX
   HX - HEAT INDEX
  VSB - VISIBILITY
$$





USA.gov is the U.S. government's official web portal to all federal, state and local government web resources and services.